Theta_e
342 339 339 339 338 336 338 338 339 339 338 338 337 338 339 338 338 339 339 338 338 339 339 339 340 339 336 334 323 325 327 328 329 328 327 335 335 332 323 324 328 333 333
339 339 342 338 337 339 339 338 338 338 338 337 337 337 338 338 338 338 338 337 338 340 341 339 339 338 336 336 334 332 332 333 333 332 332 333 336 334 328 325 330 329 331
337 340 342 337 339 338 338 337 337 337 337 336 337 338 338 338 337 337 337 339 340 340 340 340 339 337 337 337 337 336 336 335 335 335 335 335 335 334 331 326 334 335 331
336 341 341 336 336 338 338 337 337 337 339 339 340 340 340 340 339 338 338 338 339 340 339 339 340 337 337 336 336 336 336 336 336 336 336 336 336 335 334 333 327 336 337
339 342 341 337 335 338 337 337 338 338 339 339 339 338 339 337 335 332 330 331 335 335 335 336 336 334 334 335 335 336 335 335 334 335 334 335 335 333 334 334 333 328 328
341 340 339 338 335 335 336 337 337 336 334 333 336 336 336 333 328 330 332 334 334 335 333 329 324 322 323 323 323 323 323 322 321 326 331 329 331 332 332 332 331 330 330
342 340 337 338 336 335 336 336 334 334 334 334 335 335 335 335 335 334 331 329 328 328 329 329 330 330 331 331 331 331 331 331 331 329 331 333 330 330 330 330 331 329 329
340 340 338 338 336 334 336 335 335 335 335 335 335 335 334 332 333 333 329 329 330 331 331 331 330 328 325 322 319 317 318 317 317 321 330 331 332 332 332 332 332 331 333
340 339 338 338 337 334 335 336 335 335 336 336 335 333 332 331 329 328 329 330 328 326 320 312 307 305 303 303 303 303 303 302 305 317 314 318 324 327 327 326 326 324 325
341 339 337 337 337 335 335 336 336 336 335 334 333 331 331 329 329 329 327 319 310 305 303 303 302 302 302 302 303 303 303 305 307 308 308 308 309 311 316 316 314 316 317
340 339 337 337 336 336 336 336 336 335 333 331 329 329 329 329 326 320 310 304 303 302 302 302 302 302 302 302 302 304 304 305 305 305 307 307 307 312 313 314 314 316 316
340 339 337 336 336 336 336 336 334 332 331 329 329 326 321 318 311 305 303 302 303 302 302 302 301 301 301 301 302 302 302 302 303 305 306 306 307 310 311 313 314 315 315
338 339 338 337 336 335 335 334 332 331 330 328 320 318 317 313 304 304 304 303 303 302 302 302 301 301 301 301 301 302 302 302 303 304 304 305 306 308 310 312 313 314 314
337 337 337 337 335 335 334 333 330 330 327 320 315 315 312 305 305 305 304 303 302 302 301 301 301 301 301 302 302 302 302 302 302 303 303 304 305 307 309 311 312 313 313
335 335 335 334 333 333 333 331 330 326 319 318 313 311 306 305 305 304 303 303 302 301 300 300 301 301 302 302 302 302 302 302 302 302 302 303 304 307 310 311 311 312 312
332 331 330 331 330 330 328 328 326 319 315 314 311 307 306 306 304 304 303 302 301 300 300 300 301 301 301 302 301 302 301 302 302 302 302 303 304 308 307 308 309 310 309
332 332 331 329 328 328 326 325 319 318 314 310 307 306 307 305 304 303 302 302 301 300 300 301 301 300 301 301 301 301 301 302 302 303 304 305 304 303 305 305 306 305 306
331 330 329 328 327 326 324 319 315 312 310 308 306 305 305 304 303 302 301 301 299 300 300 300 300 300 299 300 301 300 302 302 303 303 305 302 301 301 300 301 301 302 304
331 329 326 326 324 323 321 314 312 310 309 307 306 304 303 303 302 301 301 300 299 300 300 299 299 299 299 300 300 301 302 303 303 304 303 301 300 299 299 298 297 298 301
330 330 326 324 322 321 316 311 310 308 308 307 305 303 302 301 301 301 300 299 299 299 300 299 298 299 300 300 301 302 302 302 302 303 301 300 299 298 298 297 296 296 298
326 326 324 322 319 319 312 310 308 307 306 305 304 303 302 301 300 300 299 299 299 299 298 298 298 299 299 299 301 302 302 302 302 301 300 299 299 297 297 296 296 296 295
323 323 321 321 319 314 311 308 307 306 305 304 303 302 301 300 299 299 299 298 299 298 298 297 298 298 299 298 299 299 300 302 301 301 300 299 298 297 296 295 295 295 293
322 318 318 316 315 311 309 308 307 305 304 303 302 302 301 300 299 298 298 298 298 297 297 297 297 298 298 297 297 299 299 300 297 300 300 298 297 296 295 295 295 293 293
303 318 318 316 313 310 308 307 306 304 302 302 302 301 300 299 298 298 298 298 298 297 296 297 296 297 297 297 296 296 296 296 295 296 298 298 296 295 295 295 294 293 294
300 308 315 314 311 309 309 307 306 303 303 302 302 300 299 298 298 297 297 297 297 296 296 296 296 296 296 296 296 295 295 295 295 293 290 294 295 294 295 295 294 293 292
299 302 315 312 310 309 308 306 305 303 302 301 301 300 299 298 297 297 297 297 296 296 296 296 295 295 295 295 295 295 295 294 293 292 290 291 291 293 294 294 294 293 292
Wind_Speed
15 23 23 20 17 16 16 16 17 17 16 15 14 14 14 13 12 11 11 10 9 9 9 9 9 8 7 7 8 7 6 7 8 9 9 8 9 11 11 9 7 9 10
21 24 23 19 18 17 16 16 16 16 17 16 16 16 15 15 14 13 12 11 11 12 12 11 10 9 7 6 6 5 5 5 6 7 8 8 6 8 12 11 10 9 8
25 24 21 20 18 18 17 17 16 16 16 17 17 17 17 16 15 15 15 15 14 15 13 12 11 9 9 7 5 4 2 3 4 6 6 10 7 5 9 10 10 10 9
26 25 21 19 20 18 17 18 17 16 16 17 17 18 17 17 17 16 15 15 14 15 12 12 11 9 8 6 4 2 0 3 4 5 6 9 5 4 9 10 10 9 9
24 23 21 19 19 20 19 19 18 17 17 17 17 18 17 17 16 15 14 12 13 13 12 11 10 8 7 5 3 1 2 3 4 3 4 5 6 8 10 10 11 10 9
24 20 20 20 19 19 20 19 18 17 17 17 17 16 15 15 14 14 13 13 14 13 11 9 6 6 5 4 3 2 3 3 4 4 4 7 7 7 8 10 11 12 12
23 19 19 21 20 21 20 19 18 18 18 18 17 16 15 14 14 13 12 11 10 9 9 7 7 6 5 4 4 4 4 5 6 5 5 10 8 7 10 11 12 13 13
20 18 20 20 21 21 20 19 19 19 18 18 17 15 14 14 14 13 10 8 8 7 6 5 4 3 3 3 4 4 5 6 6 5 5 6 6 7 7 9 12 12 13
19 22 20 20 20 21 20 19 19 19 20 19 18 17 16 16 11 8 7 6 6 6 5 5 4 4 3 4 4 5 6 6 4 4 5 7 8 9 10 10 10 12 15
21 21 23 22 22 22 21 20 21 21 20 18 18 17 14 10 9 8 7 7 6 6 5 3 3 3 3 4 5 5 4 2 3 4 6 7 9 8 10 12 14 15 15
22 21 23 23 23 23 23 23 23 20 18 17 16 14 12 11 10 9 8 7 5 3 2 2 2 3 4 5 5 5 3 4 4 4 6 7 9 11 12 13 14 14 15
22 24 24 25 24 25 26 25 22 21 18 17 16 15 13 11 10 10 8 5 3 1 1 2 3 4 4 4 4 4 5 4 3 3 6 9 10 12 13 13 13 13 13
23 22 27 26 27 27 26 24 22 21 19 18 19 16 13 11 11 8 6 4 2 1 2 2 4 4 5 5 5 5 5 5 4 4 5 8 10 11 11 11 12 12 13
24 26 28 29 29 30 29 27 24 20 21 23 20 16 15 14 11 8 5 4 2 0 1 3 4 5 5 5 6 6 7 7 6 6 5 7 9 10 10 11 12 12 12
22 28 31 28 29 31 30 28 25 25 24 24 21 16 15 13 11 9 7 4 2 1 2 3 4 5 5 5 6 7 8 9 8 7 7 7 8 10 11 12 13 13 13
23 27 28 29 28 30 29 28 29 27 24 22 21 19 16 13 12 10 8 6 3 1 1 2 4 4 4 5 6 7 8 8 8 8 8 7 7 11 13 14 14 13 14
28 30 29 27 27 30 29 29 27 25 24 24 20 19 17 15 14 12 9 7 3 1 0 2 2 2 2 3 5 6 7 6 7 10 10 10 10 11 13 14 14 14 15
31 32 31 28 28 31 30 27 26 28 26 25 24 21 18 16 14 13 11 7 4 2 1 1 1 1 3 5 6 7 6 7 10 9 10 11 12 12 11 14 14 14 14
36 32 30 28 32 33 32 27 29 28 27 24 23 21 20 18 16 13 10 7 5 3 2 1 0 2 4 5 8 5 6 9 9 8 8 11 11 12 13 13 14 15 15
36 33 31 30 32 34 32 30 29 29 27 24 23 22 21 19 16 13 10 8 6 5 4 2 0 2 4 7 5 5 7 9 8 9 9 8 10 11 12 13 14 16 16
34 35 34 34 33 36 36 35 33 32 29 25 23 22 21 19 17 14 11 9 8 6 5 2 1 2 3 6 4 7 8 8 8 7 5 7 9 12 11 13 14 14 16
34 37 36 38 39 39 38 32 27 29 30 29 25 22 21 20 17 14 12 10 8 7 5 3 2 3 2 5 3 3 2 2 4 4 4 5 9 10 12 13 13 15 17
28 33 37 38 41 40 37 34 26 27 22 23 26 25 23 20 19 16 13 11 9 8 6 4 3 3 5 4 4 3 2 3 2 4 5 5 8 9 10 12 12 15 18
16 26 39 40 39 38 40 38 38 34 26 25 34 29 25 22 19 16 14 11 9 9 7 5 4 5 6 6 5 5 6 3 3 1 4 3 6 9 9 11 11 15 18
28 12 29 36 36 36 43 40 40 31 28 27 33 29 25 22 20 17 14 12 11 9 7 6 6 7 7 7 6 5 6 6 4 2 1 2 5 8 7 8 10 18 24
32 25 18 31 33 36 40 39 39 32 32 29 35 32 28 24 22 19 16 14 11 9 8 8 8 8 8 7 6 6 7 4 3 2 3 2 2 4 7 7 9 16 24
Wind_Direction
158 157 157 151 146 144 143 141 137 132 127 124 123 128 137 135 129 122 118 114 114 108 107 113 120 124 114 100 98 97 86 71 56 48 42 39 33 24 22 28 24 18 24
149 153 153 150 146 142 141 141 139 134 131 128 126 128 134 132 130 128 124 119 115 111 107 114 121 128 121 105 100 89 70 52 40 35 34 23 13 17 13 20 24 21 23
148 152 152 151 146 145 144 143 140 136 134 132 130 130 130 127 123 121 119 115 107 105 112 114 114 120 125 131 127 116 86 34 16 21 41 19 16 20 12 11 20 18 17
151 154 155 154 151 144 148 144 142 140 135 131 129 127 125 122 120 120 119 118 112 104 111 107 105 117 124 131 138 147 336 349 4 30 41 25 47 348 346 354 357 3 4
150 156 158 158 155 153 153 148 145 145 140 136 130 126 125 126 128 126 123 118 108 103 99 96 100 113 121 128 120 77 25 8 15 48 10 356 328 313 331 337 340 343 343
151 161 166 162 160 158 153 152 150 148 142 139 135 130 126 126 130 126 123 120 110 105 101 99 99 94 87 81 68 37 9 355 350 338 354 354 341 329 330 334 333 330 327
156 164 172 167 164 161 158 157 154 147 146 144 142 137 132 127 121 119 124 127 121 112 104 101 97 89 81 67 52 30 10 1 359 4 12 353 339 332 325 328 338 339 332
159 168 168 171 167 166 165 160 156 156 155 153 148 138 138 130 122 119 125 129 125 122 115 105 97 83 50 23 12 1 354 352 353 355 7 352 339 324 348 353 347 339 338
166 169 172 171 171 169 169 165 162 162 159 156 150 148 146 141 142 142 137 133 127 120 109 95 77 60 32 5 357 351 348 346 350 24 353 336 318 324 329 319 318 317 331
170 171 172 172 173 171 171 172 170 168 166 155 152 158 162 156 157 153 149 136 123 112 99 75 34 359 348 331 338 352 4 356 6 345 320 317 320 331 342 333 323 336 336
166 170 171 171 174 172 172 176 172 171 166 156 158 158 164 166 162 154 142 133 124 103 68 40 350 333 329 327 324 352 343 340 336 11 2 340 337 355 355 351 347 346 343
163 168 172 177 177 175 174 174 175 176 177 168 167 163 164 161 154 151 151 150 143 133 32 15 342 357 354 344 330 333 340 350 5 25 344 327 335 358 1 360 358 356 355
188 176 176 183 182 183 180 180 178 183 185 172 168 168 166 163 159 160 158 148 129 64 20 9 5 8 6 2 4 3 7 10 9 355 335 326 360 12 9 9 10 10 6
187 188 186 190 188 188 193 187 188 193 180 173 177 174 175 170 172 175 169 157 151 156 353 3 8 14 13 12 8 14 12 10 6 359 352 343 6 25 29 25 22 17 15
184 189 188 194 191 190 190 187 190 191 183 181 180 179 176 177 179 181 180 176 187 276 342 2 15 22 22 19 16 17 20 22 16 9 12 32 40 49 44 34 34 34 27
192 187 194 192 201 197 190 187 187 189 186 186 180 178 182 184 186 185 182 184 192 230 345 31 40 31 22 18 14 19 25 23 16 20 53 70 59 64 48 45 39 37 28
202 198 201 201 199 202 194 190 189 193 190 185 181 182 187 186 186 188 188 185 194 186 76 51 44 26 23 17 18 16 29 35 31 73 73 64 69 70 53 39 41 29 28
204 201 201 200 202 200 197 192 191 191 189 188 188 188 189 186 190 189 192 186 187 167 127 106 54 10 14 13 17 24 54 63 84 75 75 67 61 56 45 38 38 33 28
203 199 197 199 199 198 193 190 192 190 192 193 187 189 188 187 190 196 192 187 180 169 172 175 344 354 10 20 11 71 73 93 92 94 77 67 68 44 41 38 34 37 35
197 198 194 193 196 195 188 186 187 188 193 193 193 189 189 189 193 196 192 188 178 182 189 208 159 43 24 9 36 97 95 100 112 107 94 74 64 43 38 36 39 40 34
186 189 189 186 191 190 186 181 183 184 187 190 194 192 191 190 193 194 193 187 181 186 195 201 144 65 55 14 108 102 112 111 105 111 94 75 51 40 47 49 49 38 24
184 187 183 189 190 192 189 185 182 187 188 192 192 195 193 192 193 194 196 188 184 190 190 196 139 121 102 34 113 125 123 133 131 111 105 62 47 42 40 54 48 34 29
186 185 185 188 190 189 189 186 186 190 188 183 192 195 194 195 194 195 195 193 189 196 200 196 165 162 155 95 78 155 111 181 136 154 102 86 43 51 61 61 47 30 23
340 204 194 193 192 190 194 186 191 184 181 197 194 196 194 195 195 193 196 195 194 198 199 191 177 173 173 160 118 94 92 127 154 161 127 93 48 46 69 58 38 19 13
2 256 199 193 191 191 196 194 194 190 191 197 196 192 194 193 196 193 194 195 196 199 198 194 178 170 173 168 168 150 114 100 102 144 185 352 77 41 61 65 30 20 12
9 13 211 192 191 195 198 196 199 197 193 191 192 191 192 194 193 193 193 192 194 197 195 189 174 170 169 167 159 155 148 158 170 146 112 110 29 31 69 66 28 15 9